User: anonymous   Login
Location: Partizánske
(48.6285°N, 18.3769°E)
Time: 00:53:27
(UTC+02:00)
Language:

Courier 1B Rocket - Orbit

View from above orbital plane
View from above orbital plane
View from above satellite
View from above satellite

Ground track
Ground track

The orbit data is extracted from the following two-line orbital elements,

1 00059U 60013B   22175.27079737  .00000093  00000-0  87703-5 0  9995
2 00059  28.2508  33.2858 0189134 350.5510   9.1509 13.53000734 46106
Epoch (UTC): 24 June 2022 06:29:56
Eccentricity: 0.0189134
inclination: 28.2508°
perigee height: 920 km
apogee height: 1202 km
right ascension of ascending node: 33.2858°
argument of perigee: 350.5510°
revolutions per day: 13.53000734
mean anomaly at epoch: 9.1509°
orbit number at epoch: 4610

The dashed part of the orbit path shows where the satellite is in the earth's shadow,  

DLR